Main page
Satellite images Climate Cyclones Lightning AirportsFAQ Languages Contact Newsletter About
Weather : Europe Africa North America South America Asia Australia-Oceania Others

hue-vn, Da Nang, Da Nang International Airport

latitude: , longitude: Vietnam, elevation: 16-02N m


METAR: VVDN 240530Z 09008KT 9999 FEW017 SCT060 35/25 Q1008 NOSIG